« Back
NWS Peachtree City, Ga » Text Product » GA Regional Weather Roundup


Printer-friendly Version
Current Version              Previous Versions:   1  2  3  4  5  6  7  8  9  

Regional Weather Roundup

887
ASUS42 KFFC 301103
RWRGA
WEATHER ROUNDUP FOR GEORGIA
NATIONAL WEATHER SERVICE PEACHTREE CITY GA
700 AM EDT TUE SEP 30 2014

NOTE: "FAIR" INDICATES FEW OR NO CLOUDS BELOW 12,000 FEET WITH NO
SIGNIFICANT WEATHER AND/OR OBSTRUCTIONS TO VISIBILITY.

* = USE WITH CAUTION. THE STATIONS MARKED WITH AN ASTERISK MAY NOT
REPORT WEATHER SUCH AS PRECIPITATION, FOG, OR THUNDER AND ARE NOT
QUALITY CONTROLLED BY NWS.

THE REMARK "TC" DENOTES TEMPERATURE READING IN DEGREES CELSIUS.

GAZ001>058-301200-
NORTH GEORGIA

CITY           SKY/WX    TMP DP  RH WIND       PRES   REMARKS
ATLANTA        CLOUDY    66  63  90 E6        29.96R
ATHENS           N/A     61  60  97 CALM      29.95R VSB 1/2
CHAMBLEE       CLOUDY    66  62  87 CALM      29.96R
PEACHTREE CITY CLOUDY    67  64  90 CALM      29.96S
ROME           FOG       59  59 100 CALM      29.96R VSB 1/4
WEST ATLANTA   MOCLDY    63  62  97 CALM      29.96R
GAINESVILLE    CLOUDY    62  62 100 CALM      29.98S FOG
CARTERSVILLE   FOG       60  59  96 CALM      29.97R VSB 1/2


CITY           SKY/WX    TMP DP  RH WIND       PRES   REMARKS
DALTON*        FOG       61  61 100 CALM      29.97S VSB 3/4
LAWRENCEVILLE* MOCLDY    64  59  82 CALM      29.96
MARIETTA       CLOUDY    66  65  96 NE2       29.97R
KENNESAW*      MOCLDY    61  59  94 CALM      29.98
$$

GAZ059>098-102>109-301200-
CENTRAL GEORGIA

CITY           SKY/WX    TMP DP  RH WIND       PRES   REMARKS
AUGUSTA-BUSH   MOCLDY    63  61  93 CALM      29.93R
AUGUSTA-DANIEL PTCLDY    65  63  93 N3        29.94R
COLUMBUS       CLOUDY    68  66  93 CALM      29.92S
MACON          CLOUDY    66  66 100 NE3       29.93R
ROBINS AFB     MOCLDY    67  66  96 N2        29.93R


CITY           SKY/WX    TMP DP  RH WIND       PRES   REMARKS
LAGRANGE*      CLOUDY    70  69  96 E3        29.95R
SYLVANIA*      CLOUDY    68  67  98 NE3       29.92R
$$

GAZ099>101-110>166-301200-
SOUTH GEORGIA

CITY           SKY/WX    TMP DP  RH WIND       PRES   REMARKS
SAVANNAH       CLOUDY    68  64  87 N7        29.88R
VALDOSTA       CLOUDY    69  68  96 NE6       29.88R
ALMA           CLOUDY    67  66  97 CALM      29.89R FOG
ST SIMONS      CLOUDY    69  68  96 N9        29.85R
FT STEWART     CLOUDY    67  65  93 N5        29.87R
ALBANY         CLOUDY    69  67  93 NE6       29.91S
HUNTER AFB     CLOUDY    67  66  96 N7        29.86R
MOODY AFB      CLOUDY    69  67  96 NE6       29.88R
BRUNSWICK      CLOUDY    70  68  94 N7        29.87R


CITY           SKY/WX    TMP DP  RH WIND       PRES   REMARKS
BAINBRIDGE*    CLOUDY    73  72  94 N8        29.89R
MOULTRIE*      CLOUDY    68  68 100 NE7       29.90R FOG
VIDALIA*       CLOUDY    66  64  94 N5        29.91R
WAYCROSS*      CLOUDY    71  70  98 NE7       29.88R FOG
DOUGLAS*       CLOUDY    70  68  94 NE7       29.91R
$$



USA.gov is the U.S. government's official web portal to all federal, state and local government web resources and services.